| time (UTC) | temp C | wind direction | speed KPH | gust KPH | rain 1hr cm | rain 24hr cm | rain mn cm | humidity % | barometer mb |
| 20260506092701 | 11 | 0 | 0.0 | 0.0 | 0.00 | 0.08 | 0.00 | 91 | 1016.9 |
| 20260506092413 | 11 | 0 | 0.0 | 0.0 | 0.00 | 0.10 | 0.00 | 91 | 1016.9 |
| 20260506091701 | 11 | 0 | 0.0 | 0.0 | 0.00 | 0.10 | 0.00 | 91 | 1016.9 |
| 20260506091201 | 11 | 0 | 0.0 | 0.0 | 0.00 | 0.10 | 0.00 | 91 | 1016.9 |
| 20260506091143 | 11 | 0 | 0.0 | 0.0 | 0.00 | 0.13 | 0.00 | 92 | 1016.9 |
| 20260506090912 | 11 | 0 | 0.0 | 0.0 | 0.00 | 0.13 | 0.00 | 92 | 1016.9 |
| 20260506090201 | 11 | 0 | 0.0 | 0.0 | 0.00 | 0.13 | 0.00 | 92 | 1016.9 |
| 20260506085912 | 11 | 0 | 0.0 | 0.0 | 0.00 | 0.13 | 0.00 | 92 | 1017.0 |
| 20260506085411 | 11 | 0 | 0.0 | 1.6 | 0.00 | 0.15 | 0.00 | 92 | 1017.1 |
| 20260506084702 | 11 | 0 | 0.0 | 1.6 | 0.00 | 0.18 | 0.00 | 93 | 1017.1 |
| 20260506084202 | 11 | 0 | 0.0 | 0.0 | 0.00 | 0.20 | 0.00 | 93 | 1017.1 |
| 20260506083701 | 11 | 0 | 0.0 | 0.0 | 0.00 | 0.23 | 0.00 | 93 | 1017.1 |
| 20260506083201 | 11 | 0 | 0.0 | 0.0 | 0.00 | 0.25 | 0.00 | 93 | 1017.2 |
| 20260506082701 | 11 | 0 | 0.0 | 0.0 | 0.00 | 0.28 | 0.00 | 93 | 1017.2 |
| 20260506082201 | 11 | 0 | 0.0 | 0.0 | 0.00 | 0.30 | 0.00 | 93 | 1017.2 |
| 20260506081700 | 11 | 0 | 0.0 | 0.0 | 0.00 | 0.30 | 0.00 | 93 | 1017.3 |
| 20260506081413 | 11 | 0 | 0.0 | 0.0 | 0.00 | 0.30 | 0.00 | 92 | 1017.3 |
| 20260506080701 | 11 | 0 | 0.0 | 0.0 | 0.00 | 0.30 | 0.00 | 92 | 1017.3 |
| 20260506080201 | 11 | 0 | 0.0 | 0.0 | 0.00 | 0.33 | 0.00 | 92 | 1017.3 |
| 20260506080149 | 11 | 0 | 0.0 | 0.0 | 0.00 | 0.33 | 0.00 | 92 | 1017.4 |
| 20260506073201 | 11 | 0 | 0.0 | 0.0 | 0.00 | 0.33 | 0.00 | 92 | 1017.1 |
| 20260506072912 | 11 | 0 | 0.0 | 0.0 | 0.00 | 0.33 | 0.00 | 92 | 1017.1 |
| 20260506072200 | 11 | 0 | 0.0 | 0.0 | 0.00 | 0.33 | 0.00 | 92 | 1017.0 |
| 20260506071700 | 11 | 0 | 0.0 | 0.0 | 0.00 | 0.33 | 0.00 | 91 | 1016.9 |
| 20260506071200 | 11 | 0 | 0.0 | 1.6 | 0.00 | 0.33 | 0.00 | 91 | 1016.8 |
| 20260506070701 | 12 | 0 | 0.0 | 1.6 | 0.00 | 0.36 | 0.00 | 91 | 1016.7 |
| 20260506070202 | 12 | 0 | 0.0 | 1.6 | 0.00 | 0.38 | 0.00 | 91 | 1016.7 |
| 20260506062201 | 12 | 0 | 0.0 | 0.0 | 0.00 | 0.48 | 0.38 | 90 | 1016.2 |
| 20260506061913 | 12 | 0 | 0.0 | 0.0 | 0.00 | 0.48 | 0.38 | 90 | 1016.2 |
| 20260506061201 | 12 | 0 | 0.0 | 0.0 | 0.00 | 0.48 | 0.38 | 90 | 1016.2 |
| 20260506060701 | 12 | 0 | 0.0 | 0.0 | 0.00 | 0.51 | 0.38 | 90 | 1016.2 |
| 20260506060201 | 12 | 0 | 0.0 | 0.0 | 0.00 | 0.58 | 0.38 | 90 | 1016.2 |
| 20260506051201 | 12 | 0 | 0.0 | 0.0 | 0.00 | 0.64 | 0.38 | 89 | 1015.8 |
| 20260506050701 | 12 | 0 | 0.0 | 0.0 | 0.00 | 0.64 | 0.38 | 89 | 1015.7 |
| 20260506050200 | 12 | 0 | 0.0 | 0.0 | 0.00 | 0.64 | 0.38 | 89 | 1015.7 |
| 20260506044701 | 12 | 0 | 0.0 | 0.0 | 0.00 | 0.66 | 0.38 | 88 | 1015.5 |
| 20260506044202 | 12 | 0 | 0.0 | 0.0 | 0.00 | 0.66 | 0.38 | 88 | 1015.5 |
| 20260506043702 | 12 | 0 | 0.0 | 0.0 | 0.00 | 0.66 | 0.38 | 87 | 1015.4 |
| 20260506043201 | 12 | 0 | 0.0 | 0.0 | 0.00 | 0.66 | 0.38 | 88 | 1015.4 |
| 20260506042701 | 12 | 0 | 0.0 | 0.0 | 0.00 | 0.71 | 0.38 | 89 | 1015.4 |
| 20260506042412 | 12 | 0 | 0.0 | 0.0 | 0.00 | 0.71 | 0.38 | 89 | 1015.3 |
| 20260506041902 | 12 | 0 | 0.0 | 0.0 | 0.00 | 0.74 | 0.38 | 89 | 1015.3 |
| 20260506041411 | 12 | 0 | 0.0 | 0.0 | 0.00 | 0.74 | 0.38 | 90 | 1015.3 |
| 20260506040701 | 12 | 0 | 0.0 | 0.0 | 0.00 | 0.74 | 0.38 | 89 | 1015.2 |
| 20260506040200 | 12 | 0 | 0.0 | 0.0 | 0.00 | 0.76 | 0.38 | 90 | 1015.1 |
| 20260506035700 | 12 | 0 | 0.0 | 0.0 | 0.00 | 0.76 | 0.38 | 90 | 1015.1 |
| 20260506035201 | 12 | 0 | 0.0 | 0.0 | 0.00 | 0.76 | 0.38 | 90 | 1015.0 |
| 20260506034701 | 12 | 0 | 0.0 | 0.0 | 0.00 | 0.76 | 0.38 | 89 | 1014.9 |
| 20260506034411 | 12 | 0 | 0.0 | 0.0 | 0.00 | 0.76 | 0.38 | 89 | 1014.9 |
| 20260506033912 | 12 | 0 | 0.0 | 0.0 | 0.00 | 0.76 | 0.38 | 89 | 1014.8 |
| 20260506033201 | 12 | 0 | 0.0 | 0.0 | 0.00 | 0.76 | 0.38 | 89 | 1014.7 |
| 20260506032701 | 12 | 0 | 0.0 | 0.0 | 0.00 | 0.76 | 0.38 | 88 | 1014.6 |
| 20260506032201 | 12 | 0 | 0.0 | 0.0 | 0.00 | 0.76 | 0.38 | 88 | 1014.6 |
| 20260506031701 | 13 | 0 | 0.0 | 0.0 | 0.00 | 0.76 | 0.38 | 87 | 1014.5 |
| 20260506031411 | 13 | 0 | 0.0 | 0.0 | 0.00 | 0.76 | 0.38 | 87 | 1014.4 |
| 20260506030702 | 13 | 0 | 0.0 | 0.0 | 0.00 | 0.76 | 0.38 | 87 | 1014.3 |
| 20260506030413 | 13 | 0 | 0.0 | 0.0 | 0.00 | 0.76 | 0.38 | 86 | 1014.4 |
| 20260506025702 | 13 | 0 | 0.0 | 0.0 | 0.00 | 0.76 | 0.38 | 86 | 1014.3 |
| 20260506025201 | 13 | 0 | 0.0 | 0.0 | 0.00 | 0.76 | 0.38 | 86 | 1014.3 |
| 20260506024912 | 13 | 0 | 0.0 | 0.0 | 0.00 | 0.76 | 0.38 | 85 | 1014.4 |
| 20260506024201 | 13 | 0 | 0.0 | 0.0 | 0.00 | 0.76 | 0.38 | 84 | 1014.3 |
| 20260506023701 | 13 | 0 | 0.0 | 1.6 | 0.00 | 0.76 | 0.38 | 84 | 1014.2 |
| 20260506023201 | 13 | 0 | 0.0 | 1.6 | 0.00 | 0.76 | 0.38 | 84 | 1014.2 |
| 20260506022701 | 13 | 203 | 0.0 | 3.2 | 0.00 | 0.76 | 0.38 | 84 | 1014.1 |
| 20260506022201 | 13 | 0 | 0.0 | 3.2 | 0.00 | 0.76 | 0.38 | 84 | 1014.1 |
| 20260506021702 | 13 | 198 | 0.0 | 1.6 | 0.00 | 0.76 | 0.38 | 84 | 1014.2 |
| 20260506021201 | 13 | 0 | 0.0 | 1.6 | 0.00 | 0.76 | 0.38 | 83 | 1014.2 |
| 20260506020701 | 13 | 0 | 0.0 | 1.6 | 0.00 | 0.76 | 0.38 | 83 | 1014.3 |
| 20260506020201 | 14 | 0 | 0.0 | 1.6 | 0.00 | 0.76 | 0.38 | 82 | 1014.2 |
| 20260506015912 | 14 | 0 | 0.0 | 3.2 | 0.00 | 0.76 | 0.38 | 82 | 1014.2 |
| 20260506015413 | 14 | 0 | 0.0 | 3.2 | 0.00 | 0.76 | 0.38 | 82 | 1014.1 |
| 20260506014701 | 14 | 0 | 0.0 | 0.0 | 0.00 | 0.76 | 0.38 | 81 | 1014.1 |
| 20260506014413 | 14 | 0 | 0.0 | 0.0 | 0.00 | 0.76 | 0.38 | 80 | 1014.1 |
| 20260506013700 | 14 | 0 | 0.0 | 3.2 | 0.00 | 0.76 | 0.38 | 81 | 1014.1 |
| 20260506013200 | 14 | 0 | 0.0 | 3.2 | 0.00 | 0.76 | 0.38 | 80 | 1014.1 |
| 20260506012701 | 14 | 0 | 0.0 | 4.8 | 0.00 | 0.76 | 0.38 | 81 | 1013.9 |
| 20260506012201 | 14 | 204 | 0.0 | 4.8 | 0.00 | 0.76 | 0.38 | 80 | 1014.1 |
| 20260506011701 | 14 | 0 | 0.0 | 3.2 | 0.00 | 0.76 | 0.38 | 79 | 1014.1 |
| 20260506011202 | 14 | 0 | 0.0 | 3.2 | 0.00 | 0.76 | 0.38 | 80 | 1013.9 |
| 20260506010702 | 14 | 0 | 0.0 | 3.2 | 0.00 | 0.76 | 0.38 | 80 | 1013.9 |
| 20260506010201 | 14 | 0 | 0.0 | 3.2 | 0.00 | 0.76 | 0.38 | 80 | 1013.8 |
| 20260506005700 | 14 | 0 | 0.0 | 1.6 | 0.00 | 0.76 | 0.38 | 81 | 1013.9 |
| 20260506005201 | 14 | 0 | 0.0 | 1.6 | 0.00 | 0.76 | 0.38 | 81 | 1013.9 |
| 20260506004701 | 14 | 0 | 0.0 | 3.2 | 0.00 | 0.76 | 0.38 | 81 | 1013.9 |
| 20260506004201 | 14 | 0 | 0.0 | 3.2 | 0.00 | 0.76 | 0.38 | 80 | 1013.9 |
| 20260506003701 | 14 | 0 | 0.0 | 1.6 | 0.00 | 0.76 | 0.38 | 81 | 1013.9 |
| 20260506003201 | 14 | 0 | 0.0 | 0.0 | 0.00 | 0.76 | 0.38 | 81 | 1013.9 |
| 20260506002701 | 14 | 0 | 0.0 | 0.0 | 0.00 | 0.76 | 0.38 | 79 | 1013.9 |
| 20260506002202 | 14 | 0 | 0.0 | 0.0 | 0.00 | 0.76 | 0.38 | 80 | 1013.9 |
| 20260506001913 | 14 | 0 | 0.0 | 0.0 | 0.00 | 0.76 | 0.38 | 80 | 1013.8 |
| 20260506001201 | 14 | 0 | 0.0 | 1.6 | 0.00 | 0.76 | 0.38 | 80 | 1013.8 |
| 20260506000701 | 14 | 0 | 0.0 | 1.6 | 0.00 | 0.76 | 0.38 | 81 | 1013.8 |
| 20260506000637 | 14 | 0 | 0.0 | 1.6 | 0.00 | 0.76 | 0.38 | 80 | 1013.8 |
| 20260506000412 | 14 | 0 | 0.0 | 1.6 | 0.00 | 0.76 | 0.38 | 80 | 1013.8 |
| 20260505235700 | 13 | 0 | 0.0 | 1.6 | 0.00 | 0.76 | 0.38 | 81 | 1013.7 |
| 20260505235201 | 13 | 0 | 0.0 | 0.0 | 0.00 | 0.76 | 0.38 | 81 | 1013.7 |
| 20260505234855 | 13 | 0 | 0.0 | 0.0 | 0.00 | 0.76 | 0.38 | 80 | 1013.7 |
| 20260505234412 | 13 | 0 | 0.0 | 0.0 | 0.00 | 0.76 | 0.38 | 81 | 1013.7 |
| 20260505233913 | 13 | 0 | 0.0 | 0.0 | 0.00 | 0.76 | 0.38 | 83 | 1013.6 |
| 20260505233201 | 13 | 0 | 0.0 | 0.0 | 0.00 | 0.76 | 0.38 | 81 | 1013.6 |
| 20260505232701 | 13 | 0 | 0.0 | 0.0 | 0.00 | 0.76 | 0.38 | 82 | 1013.6 |
| 20260505232200 | 13 | 0 | 0.0 | 0.0 | 0.00 | 0.76 | 0.38 | 82 | 1013.6 |
| 20260505231701 | 13 | 0 | 0.0 | 0.0 | 0.00 | 0.76 | 0.38 | 81 | 1013.6 |
| 20260505231200 | 13 | 0 | 0.0 | 0.0 | 0.00 | 0.76 | 0.38 | 82 | 1013.6 |
| 20260505230701 | 13 | 0 | 0.0 | 0.0 | 0.00 | 0.79 | 0.38 | 80 | 1013.6 |
| 20260505230201 | 13 | 0 | 0.0 | 0.0 | 0.00 | 0.79 | 0.38 | 82 | 1013.5 |
| 20260505225701 | 14 | 0 | 0.0 | 1.6 | 0.00 | 0.79 | 0.38 | 82 | 1013.5 |
| 20260505225201 | 14 | 0 | 0.0 | 1.6 | 0.00 | 0.79 | 0.38 | 80 | 1013.5 |
| 20260505224701 | 14 | 0 | 0.0 | 1.6 | 0.00 | 0.79 | 0.38 | 81 | 1013.6 |
| 20260505224201 | 14 | 0 | 0.0 | 1.6 | 0.00 | 0.79 | 0.38 | 79 | 1013.6 |
| 20260505223912 | 14 | 0 | 0.0 | 4.8 | 0.00 | 0.79 | 0.38 | 79 | 1013.6 |
| 20260505223201 | 13 | 0 | 0.0 | 4.8 | 0.00 | 0.79 | 0.38 | 80 | 1013.6 |
| 20260505222912 | 13 | 194 | 0.0 | 1.6 | 0.00 | 0.79 | 0.38 | 81 | 1013.7 |
| 20260505222201 | 13 | 0 | 0.0 | 1.6 | 0.00 | 0.79 | 0.38 | 81 | 1013.7 |
| 20260505221701 | 13 | 0 | 0.0 | 1.6 | 0.00 | 0.79 | 0.38 | 82 | 1013.8 |
| 20260505221201 | 13 | 0 | 0.0 | 1.6 | 0.00 | 0.79 | 0.38 | 80 | 1013.8 |
| 20260505220701 | 13 | 0 | 0.0 | 1.6 | 0.00 | 0.79 | 0.38 | 81 | 1013.8 |
| 20260505220201 | 13 | 0 | 0.0 | 3.2 | 0.00 | 0.79 | 0.38 | 80 | 1013.8 |
| 20260505215700 | 13 | 0 | 0.0 | 3.2 | 0.00 | 0.79 | 0.38 | 80 | 1013.8 |
| 20260505215200 | 13 | 0 | 0.0 | 3.2 | 0.00 | 0.79 | 0.38 | 83 | 1013.9 |
| 20260505214701 | 13 | 0 | 0.0 | 3.2 | 0.00 | 0.79 | 0.38 | 82 | 1013.9 |
| 20260505214201 | 13 | 0 | 0.0 | 3.2 | 0.00 | 0.79 | 0.38 | 82 | 1013.9 |
| 20260505213700 | 13 | 0 | 0.0 | 4.8 | 0.00 | 0.79 | 0.38 | 84 | 1013.9 |
| 20260505213413 | 13 | 193 | 0.0 | 6.4 | 0.00 | 0.79 | 0.38 | 82 | 1013.9 |
| 20260505212701 | 13 | 251 | 0.0 | 6.4 | 0.00 | 0.79 | 0.38 | 84 | 1013.9 |
| 20260505212200 | 13 | 168 | 0.0 | 6.4 | 0.00 | 0.81 | 0.38 | 84 | 1013.9 |
| 20260505211700 | 13 | 0 | 1.6 | 4.8 | 0.00 | 0.81 | 0.38 | 85 | 1013.9 |
| 20260505211413 | 13 | 193 | 0.0 | 4.8 | 0.00 | 0.81 | 0.38 | 85 | 1014.1 |
| 20260505210701 | 13 | 217 | 0.0 | 4.8 | 0.00 | 0.81 | 0.38 | 85 | 1014.1 |
| 20260505210413 | 13 | 206 | 0.0 | 4.8 | 0.00 | 0.84 | 0.38 | 84 | 1014.1 |
| 20260505205701 | 13 | 0 | 1.6 | 4.8 | 0.00 | 0.84 | 0.38 | 83 | 1013.9 |
| 20260505205201 | 13 | 212 | 1.6 | 4.8 | 0.00 | 0.84 | 0.38 | 84 | 1014.1 |
| 20260505204701 | 13 | 0 | 1.6 | 6.4 | 0.00 | 0.84 | 0.38 | 81 | 1014.1 |
| 20260505204200 | 13 | 189 | 1.6 | 6.4 | 0.00 | 0.84 | 0.38 | 80 | 1013.9 |
| 20260505203701 | 14 | 248 | 1.6 | 8.0 | 0.00 | 0.84 | 0.38 | 80 | 1013.9 |
| 20260505203201 | 14 | 212 | 1.6 | 8.0 | 0.00 | 0.84 | 0.38 | 79 | 1013.9 |
| 20260505202701 | 14 | 203 | 1.6 | 8.0 | 0.00 | 0.84 | 0.38 | 78 | 1013.9 |
| 20260505202202 | 14 | 0 | 1.6 | 6.4 | 0.00 | 0.84 | 0.38 | 79 | 1013.8 |
| 20260505201901 | 13 | 281 | 1.6 | 6.4 | 0.00 | 0.84 | 0.38 | 79 | 1013.8 |
| 20260505201413 | 13 | 0 | 1.6 | 6.4 | 0.00 | 0.84 | 0.38 | 82 | 1013.8 |
| 20260505200911 | 13 | 0 | 1.6 | 6.4 | 0.00 | 0.84 | 0.38 | 82 | 1013.8 |
| 20260505200201 | 13 | 208 | 1.6 | 6.4 | 0.00 | 0.84 | 0.38 | 80 | 1013.9 |
| 20260505195911 | 13 | 83 | 1.6 | 8.0 | 0.00 | 0.84 | 0.38 | 80 | 1013.9 |
| 20260505195201 | 13 | 174 | 1.6 | 8.0 | 0.00 | 0.84 | 0.38 | 78 | 1013.9 |
| 20260505194701 | 13 | 0 | 1.6 | 4.8 | 0.00 | 0.84 | 0.38 | 76 | 1013.9 |
| 20260505194200 | 13 | 211 | 1.6 | 4.8 | 0.00 | 0.84 | 0.38 | 79 | 1014.1 |
| 20260505193700 | 13 | 0 | 1.6 | 4.8 | 0.00 | 0.84 | 0.38 | 82 | 1014.1 |
| 20260505193202 | 13 | 50 | 1.6 | 4.8 | 0.00 | 0.84 | 0.38 | 83 | 1014.1 |
| 20260505192702 | 13 | 203 | 1.6 | 4.8 | 0.00 | 0.84 | 0.38 | 85 | 1014.1 |
| 20260505192201 | 13 | 0 | 1.6 | 4.8 | 0.00 | 0.84 | 0.38 | 85 | 1014.1 |
| 20260505191701 | 12 | 237 | 1.6 | 4.8 | 0.00 | 0.84 | 0.38 | 85 | 1014.1 |
| 20260505191201 | 12 | 231 | 1.6 | 4.8 | 0.00 | 0.84 | 0.38 | 83 | 1014.1 |
| 20260505190701 | 12 | 216 | 0.0 | 4.8 | 0.00 | 0.84 | 0.38 | 82 | 1014.1 |
| 20260505190412 | 12 | 0 | 1.6 | 4.8 | 0.00 | 0.84 | 0.38 | 84 | 1014.1 |
| 20260505185701 | 12 | 230 | 1.6 | 4.8 | 0.00 | 0.84 | 0.38 | 83 | 1014.1 |
| 20260505185347 | 12 | 191 | 0.0 | 3.2 | 0.00 | 0.84 | 0.38 | 86 | 1014.1 |
| 20260505184911 | 12 | 0 | 0.0 | 3.2 | 0.00 | 0.84 | 0.38 | 85 | 1013.9 |
| 20260505184414 | 12 | 0 | 0.0 | 3.2 | 0.00 | 0.84 | 0.38 | 84 | 1013.8 |
| 20260505183702 | 12 | 207 | 0.0 | 3.2 | 0.00 | 0.84 | 0.38 | 84 | 1013.8 |
| 20260505183201 | 12 | 0 | 0.0 | 3.2 | 0.00 | 0.84 | 0.38 | 85 | 1013.9 |
| 20260505183148 | 12 | 0 | 0.0 | 3.2 | 0.00 | 0.84 | 0.38 | 86 | 1013.8 |
| 20260505182913 | 12 | 0 | 0.0 | 3.2 | 0.00 | 0.84 | 0.38 | 86 | 1013.8 |
| 20260505182201 | 12 | 0 | 1.6 | 4.8 | 0.00 | 0.84 | 0.38 | 85 | 1013.8 |
| 20260505181701 | 12 | 65 | 0.0 | 4.8 | 0.00 | 0.84 | 0.38 | 84 | 1013.7 |
| 20260505181412 | 12 | 0 | 0.0 | 0.0 | 0.00 | 0.84 | 0.38 | 86 | 1013.6 |
| 20260505180700 | 12 | 0 | 0.0 | 3.2 | 0.00 | 0.84 | 0.38 | 86 | 1013.6 |
| 20260505180200 | 12 | 0 | 0.0 | 3.2 | 0.00 | 0.84 | 0.38 | 87 | 1013.6 |
| 20260505175701 | 11 | 0 | 0.0 | 3.2 | 0.00 | 0.84 | 0.38 | 87 | 1013.7 |
| 20260505175414 | 11 | 0 | 0.0 | 1.6 | 0.00 | 0.84 | 0.38 | 88 | 1013.6 |
| 20260505174702 | 11 | 0 | 0.0 | 4.8 | 0.00 | 0.84 | 0.38 | 89 | 1013.6 |
| 20260505174201 | 11 | 223 | 0.0 | 4.8 | 0.00 | 0.84 | 0.38 | 89 | 1013.6 |
| 20260505173701 | 11 | 0 | 0.0 | 3.2 | 0.00 | 0.84 | 0.38 | 89 | 1013.5 |
| 20260505173201 | 11 | 207 | 0.0 | 3.2 | 0.00 | 0.84 | 0.38 | 89 | 1013.5 |
| 20260505173151 | 11 | 0 | 0.0 | 3.2 | 0.00 | 0.84 | 0.38 | 89 | 1013.5 |
| 20260505172912 | 11 | 0 | 0.0 | 3.2 | 0.00 | 0.84 | 0.38 | 89 | 1013.5 |
| 20260505172201 | 11 | 0 | 0.0 | 1.6 | 0.00 | 0.84 | 0.38 | 88 | 1013.4 |
| 20260505171701 | 11 | 0 | 0.0 | 3.2 | 0.00 | 0.84 | 0.38 | 88 | 1013.4 |
| 20260505171201 | 11 | 0 | 0.0 | 3.2 | 0.00 | 0.84 | 0.38 | 89 | 1013.4 |
| 20260505171115 | 11 | 190 | 0.0 | 3.2 | 0.00 | 0.84 | 0.38 | 88 | 1013.3 |
| 20260505170411 | 11 | 0 | 0.0 | 3.2 | 0.00 | 0.84 | 0.38 | 87 | 1013.4 |
| 20260505165701 | 11 | 233 | 0.0 | 3.2 | 0.00 | 0.84 | 0.38 | 89 | 1013.4 |
| 20260505165201 | 11 | 0 | 0.0 | 3.2 | 0.00 | 0.84 | 0.38 | 89 | 1013.4 |
| 20260505164912 | 11 | 227 | 0.0 | 3.2 | 0.00 | 0.84 | 0.38 | 89 | 1013.3 |
| 20260505164646 | 11 | 225 | 1.6 | 4.8 | 0.00 | 0.86 | 0.38 | 90 | 1013.3 |
| 20260505164411 | 11 | 225 | 1.6 | 4.8 | 0.00 | 0.86 | 0.38 | 90 | 1013.3 |
| 20260505163700 | 11 | 94 | 1.6 | 4.8 | 0.00 | 0.86 | 0.38 | 90 | 1013.2 |
| 20260505163200 | 11 | 0 | 1.6 | 3.2 | 0.00 | 0.89 | 0.38 | 90 | 1013.2 |
| 20260505162700 | 11 | 0 | 0.0 | 3.2 | 0.00 | 0.89 | 0.38 | 89 | 1013.3 |
| 20260505162411 | 10 | 0 | 0.0 | 1.6 | 0.00 | 0.89 | 0.38 | 90 | 1013.3 |
| 20260505161912 | 10 | 218 | 0.0 | 3.2 | 0.00 | 0.89 | 0.38 | 90 | 1013.3 |
| 20260505161200 | 10 | 0 | 0.0 | 3.2 | 0.00 | 0.89 | 0.38 | 90 | 1013.2 |
| 20260505160912 | 10 | 0 | 0.0 | 3.2 | 0.00 | 0.89 | 0.38 | 89 | 1013.2 |
| 20260505160201 | 10 | 192 | 0.0 | 3.2 | 0.00 | 0.89 | 0.38 | 90 | 1013.1 |
| 20260505152700 | 10 | 242 | 0.0 | 3.2 | 0.00 | 0.89 | 0.38 | 93 | 1013.2 |
| 20260505152201 | 10 | 0 | 0.0 | 1.6 | 0.00 | 0.89 | 0.38 | 94 | 1013.1 |
| 20260505151701 | 10 | 0 | 0.0 | 1.6 | 0.00 | 0.89 | 0.38 | 94 | 1013.1 |
| 20260505151413 | 10 | 226 | 0.0 | 3.2 | 0.00 | 0.89 | 0.38 | 94 | 1013.0 |
| 20260505150701 | 10 | 0 | 0.0 | 3.2 | 0.00 | 0.89 | 0.38 | 94 | 1012.9 |
| 20260505150201 | 9 | 224 | 0.0 | 1.6 | 0.00 | 0.89 | 0.38 | 95 | 1012.8 |
| 20260505150143 | 9 | 0 | 0.0 | 3.2 | 0.00 | 0.89 | 0.38 | 94 | 1012.8 |
| 20260505140647 | 9 | 0 | 0.0 | 1.6 | 0.00 | 0.89 | 0.38 | 95 | 1012.5 |
| 20260505140358 | 9 | 0 | 0.0 | 1.6 | 0.00 | 0.89 | 0.38 | 95 | 1012.5 |
| 20260505130134 | 9 | 0 | 0.0 | 0.0 | 0.00 | 0.94 | 0.38 | 95 | 1012.4 |
| 20260505124840 | 9 | 0 | 0.0 | 0.0 | 0.00 | 0.94 | 0.38 | 95 | 1012.3 |
| 20260505124129 | 8 | 0 | 0.0 | 0.0 | 0.00 | 0.94 | 0.38 | 95 | 1012.2 |
| 20260505123630 | 8 | 0 | 0.0 | 0.0 | 0.00 | 0.94 | 0.38 | 95 | 1012.3 |
| 20260505123129 | 8 | 0 | 0.0 | 0.0 | 0.00 | 0.94 | 0.38 | 95 | 1012.2 |
| 20260505122629 | 8 | 0 | 0.0 | 0.0 | 0.00 | 0.94 | 0.38 | 95 | 1012.2 |
| 20260505122341 | 8 | 0 | 0.0 | 0.0 | 0.00 | 0.94 | 0.38 | 95 | 1012.1 |
| 20260505121629 | 8 | 0 | 0.0 | 0.0 | 0.00 | 0.94 | 0.38 | 95 | 1012.2 |
| 20260505121614 | 8 | 0 | 0.0 | 0.0 | 0.00 | 0.94 | 0.38 | 95 | 1012.3 |
| 20260505121341 | 8 | 0 | 0.0 | 0.0 | 0.00 | 0.94 | 0.38 | 95 | 1012.3 |
| 20260505120629 | 8 | 0 | 0.0 | 0.0 | 0.00 | 0.94 | 0.38 | 94 | 1012.2 |
| 20260505120128 | 8 | 0 | 0.0 | 0.0 | 0.00 | 0.94 | 0.38 | 94 | 1012.2 |
| 20260505115629 | 8 | 0 | 0.0 | 0.0 | 0.00 | 0.94 | 0.38 | 94 | 1012.3 |
| 20260505115341 | 9 | 0 | 0.0 | 0.0 | 0.00 | 0.94 | 0.38 | 95 | 1012.2 |
| 20260505114629 | 9 | 0 | 0.0 | 0.0 | 0.00 | 0.94 | 0.38 | 95 | 1012.1 |
| 20260505114129 | 9 | 0 | 0.0 | 0.0 | 0.03 | 0.94 | 0.38 | 95 | 1012.2 |
| 20260505113629 | 9 | 0 | 0.0 | 0.0 | 0.03 | 0.94 | 0.38 | 95 | 1012.3 |
| 20260505113129 | 8 | 0 | 0.0 | 0.0 | 0.03 | 0.94 | 0.38 | 95 | 1012.4 |
| 20260505112629 | 8 | 0 | 0.0 | 0.0 | 0.05 | 0.94 | 0.38 | 94 | 1012.4 |
| 20260505112128 | 8 | 0 | 0.0 | 0.0 | 0.03 | 0.91 | 0.38 | 94 | 1012.3 |
| 20260505111629 | 9 | 0 | 0.0 | 0.0 | 0.03 | 0.91 | 0.38 | 94 | 1012.4 |
| 20260505111128 | 9 | 0 | 0.0 | 0.0 | 0.03 | 0.91 | 0.38 | 94 | 1012.5 |
| 20260505110630 | 9 | 0 | 0.0 | 0.0 | 0.03 | 0.91 | 0.38 | 94 | 1012.5 |
| 20260505110130 | 9 | 0 | 0.0 | 0.0 | 0.03 | 0.91 | 0.38 | 94 | 1012.3 |
| 20260505102128 | 9 | 0 | 0.0 | 0.0 | 0.05 | 0.89 | 0.36 | 94 | 1012.5 |
| 20260505101630 | 9 | 0 | 0.0 | 0.0 | 0.05 | 0.89 | 0.36 | 94 | 1012.5 |
| 20260505101129 | 9 | 0 | 0.0 | 0.0 | 0.08 | 0.89 | 0.36 | 94 | 1012.6 |
| 20260505100629 | 9 | 0 | 0.0 | 0.0 | 0.08 | 0.89 | 0.36 | 94 | 1012.7 |
| 20260505100340 | 9 | 0 | 0.0 | 1.6 | 0.10 | 0.89 | 0.36 | 94 | 1012.7 |
| 20260505095629 | 9 | 0 | 0.0 | 1.6 | 0.10 | 0.89 | 0.36 | 94 | 1012.7 |
| 20260505095128 | 9 | 0 | 0.0 | 0.0 | 0.10 | 0.89 | 0.33 | 94 | 1012.8 |
| 20260505094629 | 9 | 0 | 0.0 | 0.0 | 0.15 | 0.89 | 0.33 | 94 | 1012.8 |
| 20260505094128 | 9 | 0 | 0.0 | 0.0 | 0.18 | 0.89 | 0.33 | 94 | 1012.8 |
| 20260505093839 | 9 | 0 | 0.0 | 0.0 | 0.18 | 0.86 | 0.33 | 94 | 1012.7 |